Temp
12 14 15 16 16 18 18 18 20 19 19 19 18 19 19 20 20 20 20 19 19 18 18 17 16 16 15 15 14 13 14 13
11 11 15 15 16 17 18 18 18 19 18 19 19 20 19 19 19 19 19 19 19 18 17 17 17 17 16 15 14 13 13 12
10 11 12 16 16 15 17 18 18 19 19 19 19 19 19 19 19 19 19 18 18 18 18 17 17 16 16 15 14 13 12 13
9 10 11 15 15 16 17 18 19 19 19 19 18 18 17 18 18 18 18 18 17 17 17 17 17 16 16 15 14 13 13 13
9 10 11 13 14 16 17 17 17 18 19 18 19 20 20 20 19 18 18 17 17 16 16 16 16 16 16 15 14 13 13 13
10 10 11 11 14 15 15 15 14 15 17 18 18 18 18 18 18 16 17 17 16 16 15 13 14 15 15 15 14 14 13 13
8 6 6 9 11 13 14 15 14 14 14 15 14 16 16 15 16 16 16 16 16 16 15 15 11 12 14 15 15 14 14 14
2 2 3 5 7 9 10 12 13 12 13 14 14 14 14 13 14 14 16 16 15 17 16 15 14 14 14 15 15 15 14 13
0 0 1 1 2 8 9 10 10 11 12 12 13 13 13 13 13 13 14 14 15 15 16 16 15 15 14 14 15 14 14 14
-1 -1 1 -0 2 6 8 8 9 10 10 11 12 11 12 12 13 14 14 15 15 15 16 16 16 14 14 15 15 14 14 14
-1 -1 -1 -1 3 4 5 7 7 9 10 11 11 12 12 12 13 14 15 15 15 15 15 15 14 14 13 13 13 13 13 13
-3 -3 -2 -1 1 3 4 5 5 8 8 10 12 10 12 14 13 14 15 15 15 15 15 15 15 14 14 14 12 13 13 13
-3 -3 -2 -2 -2 -0 1 3 4 5 5 7 9 11 12 12 13 13 13 14 14 14 14 14 14 14 13 14 11 12 12 12
-4 -3 -3 -3 -3 -2 -2 0 3 4 4 5 6 8 9 10 11 10 11 11 11 12 13 13 13 13 13 13 12 10 11 12
-5 -5 -5 -3 -4 -4 -1 4 6 6 6 6 5 8 9 9 9 9 10 10 11 11 11 12 13 13 12 11 10 9 11 11
-5 -5 -4 -4 -1 1 0 1 3 3 3 3 4 7 7 7 9 9 9 9 9 9 10 10 10 9 9 9 9 9 10 11
-6 -5 -4 -3 -2 -2 -1 -1 0 1 2 2 5 5 5 6 6 6 6 7 7 7 8 8 8 8 9 9 9 9 9 10
-6 -5 -4 -4 -2 -3 -2 -1 1 2 2 1 2 3 4 5 5 6 6 6 4 5 5 5 5 7 8 9 9 9 10 10
-6 -5 -5 -5 -4 -3 -4 -3 -1 -1 -0 -0 1 2 3 3 4 3 2 2 2 3 5 6 6 7 8 9 9 10 10 9
Height
1429 1427 1429 1430 1432 1433 1437 1443 1450 1457 1462 1466 1472 1475 1480 1483 1486 1491 1495 1497 1500 1503 1506 1509 1513 1515 1518 1521 1523 1526 1528 1530
1415 1415 1416 1418 1422 1422 1425 1431 1441 1449 1452 1456 1462 1465 1471 1476 1481 1484 1488 1492 1494 1498 1501 1504 1506 1508 1511 1515 1519 1520 1522 1526
1396 1400 1402 1405 1407 1414 1418 1421 1429 1439 1446 1451 1454 1460 1465 1470 1475 1477 1480 1484 1488 1492 1495 1498 1502 1504 1505 1508 1511 1515 1518 1520
1389 1387 1390 1393 1397 1400 1405 1411 1418 1426 1437 1445 1448 1452 1459 1462 1465 1468 1473 1478 1483 1487 1489 1493 1495 1498 1498 1501 1504 1507 1511 1515
1375 1376 1381 1383 1385 1392 1396 1402 1409 1416 1427 1435 1438 1442 1448 1452 1457 1462 1466 1472 1477 1483 1487 1492 1496 1494 1496 1496 1499 1502 1505 1507
1364 1370 1374 1374 1375 1380 1387 1393 1401 1409 1417 1426 1433 1436 1442 1446 1451 1456 1462 1467 1471 1475 1478 1485 1489 1495 1493 1493 1495 1496 1498 1500
1361 1366 1368 1368 1370 1372 1379 1385 1393 1402 1412 1420 1427 1430 1434 1441 1446 1452 1456 1459 1464 1469 1472 1471 1479 1489 1491 1489 1490 1489 1492 1493
1369 1369 1370 1370 1373 1370 1376 1383 1389 1398 1408 1417 1421 1426 1430 1436 1442 1446 1450 1454 1459 1462 1467 1469 1479 1481 1483 1484 1482 1483 1483 1486
1375 1375 1375 1376 1378 1367 1377 1379 1390 1398 1406 1414 1418 1423 1427 1432 1437 1441 1445 1451 1456 1457 1460 1462 1466 1470 1473 1475 1475 1475 1475 1477
1389 1386 1383 1388 1380 1375 1381 1391 1395 1400 1407 1413 1418 1423 1426 1430 1434 1438 1442 1446 1449 1451 1452 1454 1457 1460 1463 1465 1465 1465 1466 1468
1399 1391 1391 1392 1386 1388 1397 1395 1404 1405 1411 1413 1418 1421 1427 1430 1430 1433 1437 1439 1441 1442 1443 1444 1446 1449 1452 1453 1454 1455 1456 1458
1412 1407 1403 1398 1397 1399 1401 1408 1411 1406 1413 1413 1416 1426 1424 1423 1427 1429 1429 1432 1432 1434 1435 1436 1437 1439 1441 1442 1443 1445 1446 1447
1422 1417 1412 1408 1409 1408 1409 1410 1408 1411 1414 1416 1419 1418 1419 1423 1422 1422 1423 1425 1425 1426 1426 1426 1427 1429 1430 1431 1431 1433 1435 1437
1429 1425 1421 1418 1418 1417 1417 1417 1413 1413 1414 1417 1417 1416 1415 1414 1416 1417 1417 1418 1418 1417 1415 1413 1414 1416 1418 1418 1420 1422 1424 1429
1435 1428 1424 1421 1427 1423 1418 1409 1406 1412 1414 1418 1421 1412 1410 1412 1413 1411 1408 1406 1405 1404 1404 1404 1403 1404 1404 1406 1408 1411 1415 1421
1437 1433 1431 1426 1413 1412 1415 1414 1418 1423 1427 1425 1417 1406 1407 1408 1404 1404 1402 1400 1399 1396 1393 1393 1394 1394 1396 1399 1401 1404 1407 1411
1446 1442 1437 1431 1427 1427 1425 1424 1423 1423 1421 1420 1405 1407 1409 1406 1405 1402 1397 1393 1391 1388 1386 1384 1384 1385 1389 1392 1394 1396 1399 1402
1450 1446 1442 1438 1436 1434 1429 1423 1420 1417 1411 1413 1414 1413 1409 1404 1398 1393 1389 1385 1383 1380 1379 1378 1376 1377 1381 1384 1385 1388 1390 1393
1458 1455 1452 1450 1446 1443 1439 1435 1429 1424 1422 1420 1414 1410 1405 1399 1394 1389 1386 1382 1378 1374 1371 1369 1367 1369 1373 1376 1379 1380 1382 1383
Wind_Speed
35 44 40 35 38 42 40 44 54 52 50 47 43 42 41 40 37 34 32 31 31 29 28 27 26 27 27 27 26 25 24 21
43 38 47 39 39 44 42 41 51 55 55 52 49 47 46 43 40 38 36 34 33 31 31 29 29 29 28 28 27 27 25 23
50 40 44 45 40 42 44 44 43 53 56 53 51 47 46 44 43 42 40 38 35 32 32 31 29 28 28 29 30 29 26 26
46 44 39 48 42 41 44 44 44 51 54 53 50 46 43 44 45 44 43 39 35 33 33 31 29 28 28 28 30 30 29 27
46 47 34 37 41 40 40 44 46 47 54 53 50 46 45 44 43 44 40 38 34 30 31 30 28 26 28 28 28 28 28 31
37 33 31 30 34 34 36 41 40 45 50 50 47 45 43 41 39 37 36 35 34 32 30 23 23 26 28 30 27 28 31 31
6 11 12 17 20 26 32 34 37 36 37 38 36 38 37 34 31 30 30 34 36 33 35 29 35 28 31 30 31 30 31 31
25 24 22 20 23 29 30 29 29 27 28 29 28 26 25 26 26 26 25 26 28 33 25 30 31 32 35 38 35 33 33 35
35 30 28 26 24 35 31 29 28 25 25 25 25 23 24 23 26 24 23 23 21 20 20 25 30 34 40 44 39 36 33 35
33 33 35 27 33 38 35 31 29 26 23 20 19 19 18 20 21 22 23 25 25 25 26 31 38 42 43 45 43 39 37 36
32 34 31 30 34 33 29 29 25 25 22 19 16 14 12 14 15 17 20 23 26 30 31 34 37 38 37 38 41 40 40 39
33 31 31 32 32 30 28 23 18 20 16 14 11 9 8 8 10 15 20 24 27 31 34 36 38 39 40 41 42 41 42 39
32 35 33 33 31 29 29 26 24 21 16 12 5 2 4 9 12 16 20 24 29 32 34 37 39 40 41 44 44 44 42 42
37 38 37 34 31 30 28 27 27 24 22 18 12 9 7 9 13 15 19 22 25 28 33 37 38 38 40 43 46 43 43 42
33 35 36 34 29 29 29 30 25 21 19 19 17 15 12 11 13 17 21 24 26 28 29 33 37 38 37 39 42 41 43 45
38 38 38 36 40 37 33 32 26 21 18 20 23 21 20 18 17 19 21 24 26 28 31 32 33 33 32 31 33 38 43 45
34 35 38 38 37 34 33 30 28 25 24 25 27 25 23 22 21 20 20 21 23 25 28 31 31 32 32 32 32 37 41 42
34 34 35 34 33 31 32 31 29 28 30 29 27 26 26 26 26 25 24 23 23 22 24 26 29 29 32 29 29 36 38 40
30 30 29 27 26 27 27 27 27 28 28 29 30 30 30 30 29 28 26 24 22 21 22 22 26 29 28 26 30 29 34 38
Wind_Direction
271 265 263 260 254 254 254 241 227 223 221 220 217 219 221 221 222 223 224 225 227 227 226 226 225 226 227 228 229 228 230 235
272 263 257 257 257 250 246 241 228 226 222 220 220 221 224 226 226 225 227 229 230 229 231 230 226 228 229 228 228 227 227 230
266 263 254 247 254 241 244 241 229 228 227 225 226 226 230 233 232 233 231 230 232 231 233 231 227 228 228 225 226 227 229 230
259 259 249 245 249 244 241 239 233 225 227 227 226 229 231 235 236 235 235 232 230 230 230 227 227 228 231 229 228 226 229 234
253 255 250 249 253 251 241 236 230 225 224 226 227 229 232 238 239 239 235 230 226 227 231 234 235 233 235 233 233 232 231 236
248 252 249 240 245 235 221 218 214 221 224 226 229 227 231 238 241 240 238 227 220 221 220 252 249 253 250 242 237 234 233 235
145 125 150 186 191 190 194 200 204 207 212 220 225 228 229 235 239 242 237 228 223 227 235 241 278 265 262 257 245 239 239 238
75 78 86 105 131 144 152 171 170 183 194 202 211 218 222 230 235 234 233 227 230 234 241 249 243 256 261 258 250 247 244 242
56 63 72 76 91 114 117 126 139 158 170 176 187 201 210 215 222 213 200 205 215 225 236 244 238 245 252 255 252 249 247 246
48 60 76 71 82 94 102 110 117 125 140 159 174 177 184 191 197 205 215 224 226 221 219 229 236 246 249 251 251 249 246 245
41 51 56 62 74 83 96 99 104 114 121 130 140 150 174 185 192 206 223 231 233 237 241 243 242 242 246 247 249 249 246 244
35 44 51 64 70 72 75 89 91 98 102 115 130 165 182 219 229 234 237 245 247 248 250 250 250 249 248 248 250 248 247 244
36 43 52 57 59 60 62 64 64 66 65 71 86 124 200 234 242 247 250 250 251 254 252 252 253 252 251 249 249 249 246 246
33 39 43 47 48 52 52 55 56 54 51 40 32 16 351 318 301 285 273 267 260 256 259 260 259 257 253 251 251 249 251 246
26 30 35 42 38 44 46 54 53 40 35 29 21 25 6 337 312 302 294 287 281 274 266 262 262 260 258 253 250 247 247 247
20 21 29 30 36 36 39 45 51 47 36 23 23 24 11 356 336 313 301 290 282 276 272 267 263 255 255 257 253 243 241 244
18 20 27 26 29 28 29 31 36 35 32 22 22 16 7 358 345 334 319 304 291 281 274 272 264 250 246 251 246 244 238 241
14 18 20 22 22 23 24 24 24 26 27 22 18 12 7 1 353 342 330 319 303 290 280 271 268 246 240 248 247 240 239 245
14 13 17 19 23 23 23 25 27 27 23 18 17 13 9 3 357 351 342 332 317 304 292 277 267 244 238 248 244 239 243 247